Location: 01445 Radebeul, Deutschland
(51.1161°N, 13.6224°E)
Time: 21:38:19
(UTC+01:00)

N. Korean satellite - Visible Passes

Search period start: 23 February 2018 00:00
Search period end: 05 March 2018 00:00
Orbit: 459 x 514 km, 97.2° (Epoch: 23 February)

Date Brightness Start Highest point End Pass type
(mag) Time Alt. Az. Time Alt. Az. Time Alt. Az.
23 Feb 10.7 05:33:08 10° ENE 05:33:47 10° E 05:34:27 10° E visible
24 Feb 9.9 18:56:23 10° SW 18:58:37 16° W 19:00:52 10° NW visible
25 Feb 9.0 06:16:53 10° NNE 06:20:12 30° E 06:23:31 10° SSE visible
25 Feb 9.0 18:31:38 10° SSW 18:34:40 28° W 18:37:46 10° NW visible
26 Feb 10.0 05:53:42 10° NE 05:56:16 18° E 05:58:52 10° SE visible
26 Feb 7.6 18:07:24 10° S 18:10:48 52° W 18:14:17 10° NNW visible
27 Feb 10.8 05:31:45 10° ENE 05:32:16 10° E 05:32:47 10° E visible
28 Feb 9.9 18:54:43 10° SW 18:57:03 17° W 18:59:25 10° NW visible
01 Mar 9.1 06:15:21 10° NNE 06:18:40 30° E 06:21:59 10° SSE visible
01 Mar 8.9 18:30:00 10° SSW 18:33:06 29° W 18:36:16 10° NNW visible
02 Mar 10.1 05:52:10 10° NE 05:54:43 17° E 05:57:18 10° SE visible
03 Mar 10.9 05:30:32 10° E 05:30:42 10° E 05:30:52 10° E visible
04 Mar 9.9 18:53:01 10° SW 18:55:27 17° W 18:57:56 10° NW visible
